Tracking 31032 objects as of 14-Jul-2025
HD Live streaming from Space Station
objects crossing your sky now

STARLINK-32046

Track STARLINK-32046 now!
10-day predictions
STARLINK-32046 is classified as:


NORAD ID: 60198
Int'l Code: 2024-124R
Perigee: 481.8 km
Apogee: 483.0 km
Inclination: 53.2 °
Period: 94.1 minutes
Semi major axis: 6853 km
RCS: Unknown
Launch date: July 3, 2024
Source: United States (US)
Launch site: AIR FORCE EASTERN TEST RANGE (AFETR)
Your satellite tracking list
Your tracking list is empty




NASA's NSSDC Master Catalog

Two Line Element Set (TLE):
1 60198U 24124R   25194.17064618  .00002464  00000-0  95298-4 0  9994
2 60198  53.1632 355.0813 0000881  84.9010 275.2092 15.30199034 58858
Source of the keplerian elements: AFSPC